[Iaude] MPEC Y04: 2023 XV14 [a=1.53,e=0.26,i=2.3,H=22.7]

mpec at marsden.cfa.harvard.edu mpec at marsden.cfa.harvard.edu
Sat Dec 16 02:48:37 EST 2023


M.P.E.C. 2023-Y04                             Issued 2023 December 16, 07:46 UT

     The Minor Planet Electronic Circulars contain information on unusual
         minor planets, routine data on comets and natural satellites,
         and occasional editorial announcements.  They are published
    on behalf of Division F of the International Astronomical Union by the
          Minor Planet Center, Smithsonian Astrophysical Observatory,
                          Cambridge, MA 02138, U.S.A.
			  
             Prepared using the Tamkin Foundation Computer Network

                              MPC at CFA.HARVARD.EDU
            URL https://www.minorplanetcenter.net/    ISSN 1523-6714

                                   2023 XV14                                    


Observations:
     K23X14V*1C2023 12 14.39878508 29 58.142+28 39 24.30         21.34GVEY004G96
     K23X14V 1C2023 12 14.40402008 29 58.938+28 39 20.77         21.29GVEY004G96
     K23X14V 1C2023 12 14.40926908 29 59.665+28 39 17.60         20.32GVEY004G96
     K23X14V 1C2023 12 14.41453508 30 00.385+28 39 15.59         20.71GVEY004G96
     K23X14V KC2023 12 14.47816608 30 09.331+28 38 39.59         20.57GVEY004I52
     K23X14V KC2023 12 14.48675308 30 10.573+28 38 33.90         20.63GVEY004I52
     K23X14V KC2023 12 14.49674308 30 12.002+28 38 28.00         20.79GVEY004I52
     K23X14V KC2023 12 15.32439008 32 22.33 +28 30 29.3          21.4 GVEY004H21
     K23X14V KC2023 12 15.32998108 32 23.11 +28 30 26.3          21.4 GVEY004H21
     K23X14V KC2023 12 15.33342808 32 23.60 +28 30 24.6          21.3 GVEY004H21
     K23X14V KC2023 12 16.30563408 34 54.156+28 20 49.56               VEY004I52
     K23X14V KC2023 12 16.30843108 34 54.599+28 20 48.26         20.37GVEY004I52
     K23X14V KC2023 12 16.31161408 34 55.045+28 20 46.68         21.35GVEY004I52

Observer details:
G96 Mt. Lemmon Survey.  Observer J. K. Hogan.  Measurers E. C. Beshore, D.
    Fay, J. B. Fazekas, D. C. Fuls, A. R. Gibbs, A. D. Grauer, H. Groeller, J.
    K. Hogan, R. A. Kowalski, S. M. Larson, G. J. Leonard, D. Rankin, R. L.
    Seaman, F. C. Shelly, K. W. Wierzchos.  1.5-m reflector + 10K CCD.
H21 Astronomical Research Observatory, Westfield.  Observer R. Holmes.
    Measurers T. Linder, R. Holmes, L. Horn.  0.76-m f/3.0 astrograph + CCD.
I52 Steward Observatory, Mt. Lemmon Station.  Observer K. W. Wierzchos.
    Measurers E. C. Beshore, D. Fay, J. B. Fazekas, D. C. Fuls, A. R. Gibbs,
    A. D. Grauer, H. Groeller, J. K. Hogan, R. A. Kowalski, S. M. Larson, G.
    J. Leonard, D. Rankin, R. L. Seaman, F. C. Shelly, K. W. Wierzchos.  1.0-m
    prime focus + CCD.

Orbital elements:
2023 XV14                                                Earth MOID = 0.1549 AU
Epoch 2023 Sept. 13.0 TT = JDT 2460200.5                MPC                     
M 297.78444              (2000.0)            P               Q                  
n   0.51975538     Peri.  153.69677     -0.39793121     -0.91704408             
a   1.5320398      Node   319.73756     +0.83443523     -0.34997114             
e   0.2567265      Incl.    2.31397     +0.38127233     -0.19118149             
P   1.90           H   22.73          G   0.15           U   9                  
Residuals in seconds of arc
231214 G96  0.5-  0.4+    231214 I52  0.1+  0.2+    231216 I52  0.3-  0.0
231214 G96  0.2+  0.3-    231214 I52  0.3+  0.2+    231216 I52  0.4+  0.2+
231214 G96  0.1+  0.6-    231215 H21  0.0   0.2-    231216 I52  0.4+  0.3+
231214 G96  0.2-  0.3+    231215 H21  0.1-  0.1-
231214 I52  0.3-  0.7+    231215 H21  0.0   0.1+

Ephemeris:
2023 XV14                a,e,i = 1.53, 0.26, 2                   q = 1.1387
Date    TT    R. A. (2000) Decl.     Delta      r    Elong.  Phase     V
2023 11 16    07 07 14.6 +30 50 00   0.3322  1.2222   128.0    39.6    22.3
...
2023 12 01    07 52 24.0 +30 13 59   0.2672  1.1850   133.1    37.4    21.7
...
2023 12 09    08 15 23.2 +29 24 58   0.2392  1.1691   136.0    35.8    21.4
...
2023 12 15    08 31 31.3 +28 33 46   0.2213  1.1592   138.4    34.3    21.2
2023 12 16    08 34 05.5 +28 24 01   0.2186  1.1577   138.8    34.1    21.2
2023 12 17    08 36 37.5 +28 13 55   0.2159  1.1563   139.2    33.8    21.1
...
2023 12 23    08 50 58.6 +27 06 07   0.2014  1.1489   141.9    31.9    20.9
...
2023 12 31    09 07 27.4 +25 17 44   0.1859  1.1421   145.9    28.8    20.6
...
2024 01 15    09 27 55.9 +21 15 18   0.1684  1.1392   155.7    20.8    20.2

A. U. Tomatic                (C) Copyright 2023 MPC           M.P.E.C. 2023-Y04





More information about the Iaude mailing list